Hourly Data Report for September 15, 2017

All times are specified in Local Standard Time (LST). Add 1 hour to adjust for Daylight Saving Time where and when it is observed.

HALL BEACH A
NUNAVUT

68°46'33.000" N
81°14'33.000" W
9.10 m
2402354
71293
YUX

Download Data

Hourly Data (September 2017)
Hourly Data Report for September 15, 2017
Temp Definition
°C
Dew Point Temp Definition
°C
Rel Hum Definition
%
Wind Dir Definition
10's deg

Wind Spd Definition
km/h
Visibility Definition
km
Stn Press Definition
kPa
Hmdx Definition


Wind Chill Definition


Weather Definition


TIME
00:00 Legend Double Dagger -0.9 -2.2 91 33 15 16.1 100.95   -6 LegendNANA
01:00 Legend Double Dagger -0.9 -2.0 92 33 15 16.1 100.93   -6 LegendNANA
02:00 Legend Double Dagger -1.5 -2.3 94 31 13 16.1 100.94   -6 LegendNANA
03:00 Legend Double Dagger -1.4 -2.2 94 31 17 16.1 100.93   -7 LegendNANA
04:00 Legend Double Dagger -0.7 -1.7 93 31 15 16.1 100.91   -5 LegendNANA
05:00 Legend Double Dagger -0.3 -1.5 92 31 15 16.1 100.93   -5 LegendNANA
06:00 Legend Double Dagger -0.4 -1.8 90 32 18 16.1 100.93   -5 LegendNANA
07:00 Legend Double Dagger -0.6 -2.0 90 31 17 16.1 100.93   -6 LegendNANA
08:00 Legend Double Dagger -0.7 -1.8 92 32 17 16.1 100.93   -6 LegendNANA
09:00 Legend Double Dagger 1.0 -1.6 83 32 26 16.1 100.92     LegendNANA
10:00 Legend Double Dagger 1.5 -1.5 81 33 26 16.1 100.92     LegendNANA
11:00 Legend Double Dagger 2.0 -1.5 78 35 24 16.1 100.90     LegendNANA
12:00 Legend Double Dagger 2.7 -2.0 71 35 21 16.1 100.90     LegendNANA
13:00 Legend Double Dagger 3.2 -1.3 72 1 17 16.1 100.91     LegendNANA
14:00 Legend Double Dagger 3.4 -1.3 71 36 15 16.1 100.94     LegendNANA
15:00 Legend Double Dagger 3.7 -1.6 68 1 13 16.1 100.95     LegendNANA
16:00 Legend Double Dagger 2.9 -1.6 73 3 8 16.1 100.97     LegendNANA
17:00 Legend Double Dagger 3.0 -1.7 72 3 8 16.1 100.99     LegendNANA
18:00 Legend Double Dagger 2.0 -1.1 80 2 5 9.7 101.00     Haze
19:00 Legend Double Dagger 0.7 -1.0 88   0 16.1 101.04     LegendNANA
20:00 Legend Double Dagger -0.2 -1.5 91 30 9 16.1 101.05   -3 LegendNANA
21:00 Legend Double Dagger -0.1 -0.8 95 31 17 16.1 101.04   -5 LegendNANA
22:00 Legend Double Dagger -0.1 -1.0 94 32 17 16.1 101.03   -5 LegendNANA
23:00 Legend Double Dagger -0.1 -1.0 94 30 15 16.1 101.04   -5 LegendNANA

Notes on Data Quality.

Legend

  • E = Estimated
  • M = Missing
  • NA = Not Available
  • ‡ = Partner data that is not subject to review by the National Climate Archives
Date modified: